Location: Blazny
(46.0612°N, 84.4033°W)
Time: 10:18:07
(UTC-04:00)

ARIANE 6 FM1 Upper Stage - Pass Details

Date: 20 September 2024
Orbit: 564 x 594 km, 62.0° (Epoch: 03 October)

Event Time Altitude Azimuth Distance (km) Brightness Sun altitude
Rises 22:17:15 0° 237° (WSW) 2,779 6.5 -27.0°
Reaches altitude 10° 22:19:33 10° 244° (WSW) 1,889 5.7 -27.3°
Enters shadow 22:23:39 45° 317° (NW) 799 3.7 -27.9°
